N41PC KPRB-KSEE

Flight info

Callsign N41PC
Flight time 1h 2m
Altitude 25000
Route LAX OCN ASIXY
Aircraft PC12/L-SDFGRWY/S

Departure

Time 2026-05-04 21:10
Airport Paso Robles Municipal Airport (KPRB)

Arrival

Time 2026-05-04 22:12
Airport Gillespie Field (KSEE)
Time Latitude Longitude Altitude Speed Heading
2026-05-04 20:59 35.66919 -120.63740 822 ft 0 kts 356°
2026-05-04 21:05 35.66935 -120.63728 822 ft 8 kts 46°
2026-05-04 21:05 35.67011 -120.63701 822 ft 9 kts 60°
2026-05-04 21:06 35.67012 -120.63560 822 ft 23 kts 87°
2026-05-04 21:06 35.67047 -120.63421 822 ft 14 kts 25°
2026-05-04 21:06 35.67182 -120.63331 822 ft 28 kts 28°
2026-05-04 21:06 35.67339 -120.63225 822 ft 30 kts 29°
2026-05-04 21:07 35.67527 -120.63099 822 ft 31 kts 29°
2026-05-04 21:07 35.67682 -120.62996 822 ft 17 kts 27°
2026-05-04 21:07 35.67750 -120.62951 822 ft 7 kts 31°
2026-05-04 21:07 35.67811 -120.62907 822 ft 18 kts 31°
2026-05-04 21:08 35.67952 -120.62817 822 ft 25 kts 31°
2026-05-04 21:08 35.68057 -120.62740 822 ft 12 kts 72°
2026-05-04 21:08 35.68060 -120.62701 822 ft 0 kts 89°
2026-05-04 21:09 35.68060 -120.62699 822 ft 2 kts 89°
2026-05-04 21:09 35.68053 -120.62628 821 ft 11 kts 132°
2026-05-04 21:09 35.67945 -120.62667 823 ft 27 kts 207°
2026-05-04 21:09 35.67614 -120.62885 833 ft 78 kts 205°
2026-05-04 21:10 35.67062 -120.63276 1060 ft 106 kts 211°
2026-05-04 21:10 35.66370 -120.63811 1460 ft 131 kts 211°
2026-05-04 21:10 35.65539 -120.64376 2151 ft 132 kts 209°
2026-05-04 21:10 35.64772 -120.64841 3038 ft 118 kts 209°
2026-05-04 21:11 35.64013 -120.65251 3612 ft 129 kts 196°
2026-05-04 21:11 35.63080 -120.65023 4116 ft 151 kts 144°
2026-05-04 21:11 35.62615 -120.63861 4804 ft 155 kts 106°
2026-05-04 21:11 35.62334 -120.62593 5546 ft 153 kts 108°
2026-05-04 21:12 35.62062 -120.61347 6340 ft 151 kts 107°
2026-05-04 21:12 35.61792 -120.60109 7097 ft 150 kts 107°
2026-05-04 21:12 35.61514 -120.58874 7859 ft 150 kts 107°
2026-05-04 21:12 35.61238 -120.57634 8589 ft 152 kts 107°
2026-05-04 21:13 35.60947 -120.56380 9330 ft 153 kts 107°
2026-05-04 21:13 35.60658 -120.55122 10066 ft 153 kts 107°
2026-05-04 21:13 35.60392 -120.53848 10681 ft 156 kts 103°
2026-05-04 21:13 35.60071 -120.52562 11244 ft 158 kts 116°
2026-05-04 21:14 35.59443 -120.51450 11827 ft 159 kts 134°
2026-05-04 21:14 35.58684 -120.50445 12416 ft 162 kts 137°
2026-05-04 21:14 35.57899 -120.49431 12996 ft 165 kts 138°
2026-05-04 21:14 35.57099 -120.48399 13590 ft 168 kts 139°
2026-05-04 21:15 35.56283 -120.47346 14187 ft 171 kts 139°
2026-05-04 21:15 35.55467 -120.46293 14748 ft 174 kts 138°
2026-05-04 21:15 35.54616 -120.45194 15372 ft 177 kts 139°
2026-05-04 21:15 35.53771 -120.44104 15993 ft 180 kts 140°
2026-05-04 21:16 35.52902 -120.42983 16629 ft 182 kts 140°
2026-05-04 21:16 35.52023 -120.41849 17284 ft 184 kts 140°
2026-05-04 21:16 35.51134 -120.40702 17932 ft 186 kts 139°
2026-05-04 21:16 35.50233 -120.39541 18535 ft 189 kts 139°
2026-05-04 21:17 35.49318 -120.38364 19089 ft 191 kts 139°
2026-05-04 21:17 35.48399 -120.37179 19665 ft 192 kts 140°
2026-05-04 21:17 35.47470 -120.35984 20252 ft 194 kts 140°
2026-05-04 21:17 35.46535 -120.34780 20844 ft 196 kts 141°
2026-05-04 21:18 35.45587 -120.33562 21432 ft 198 kts 141°
2026-05-04 21:18 35.44634 -120.32336 21998 ft 199 kts 142°
2026-05-04 21:18 35.43689 -120.31121 22553 ft 201 kts 142°
2026-05-04 21:18 35.42716 -120.29873 23123 ft 204 kts 142°
2026-05-04 21:19 35.41737 -120.28614 23706 ft 204 kts 142°
2026-05-04 21:19 35.40758 -120.27355 24213 ft 203 kts 144°
2026-05-04 21:19 35.39785 -120.26107 24718 ft 203 kts 145°
2026-05-04 21:19 35.38781 -120.24827 25010 ft 215 kts 146°
2026-05-04 21:20 35.37682 -120.23441 25049 ft 238 kts 145°
2026-05-04 21:20 35.36898 -120.22441 25052 ft 253 kts 144°
2026-05-04 21:20 35.35643 -120.20823 25050 ft 269 kts 143°
2026-05-04 21:20 35.34322 -120.19121 25047 ft 281 kts 143°
2026-05-04 21:21 35.32956 -120.17366 25028 ft 288 kts 143°
2026-05-04 21:21 35.31564 -120.15581 25036 ft 291 kts 143°
2026-05-04 21:21 35.30164 -120.13789 25033 ft 291 kts 143°
2026-05-04 21:21 35.28772 -120.12007 25032 ft 289 kts 144°
2026-05-04 21:22 35.27382 -120.10233 25028 ft 288 kts 144°
2026-05-04 21:22 35.25996 -120.08463 25027 ft 288 kts 144°
2026-05-04 21:22 35.24611 -120.06697 25027 ft 287 kts 144°
2026-05-04 21:22 35.23227 -120.04932 25021 ft 287 kts 144°
2026-05-04 21:23 35.21841 -120.03165 25019 ft 288 kts 144°
2026-05-04 21:23 35.20451 -120.01394 25020 ft 288 kts 144°
2026-05-04 21:23 35.19084 -119.99652 25020 ft 288 kts 144°
2026-05-04 21:23 35.17694 -119.97883 25018 ft 287 kts 144°
2026-05-04 21:24 35.16312 -119.96125 25013 ft 287 kts 145°
2026-05-04 21:24 35.14929 -119.94365 25014 ft 287 kts 145°
2026-05-04 21:24 35.13543 -119.92604 25005 ft 287 kts 145°
2026-05-04 21:24 35.12161 -119.90850 25006 ft 287 kts 145°
2026-05-04 21:25 35.10776 -119.89091 25000 ft 287 kts 145°
2026-05-04 21:25 35.09393 -119.87337 25006 ft 287 kts 145°
2026-05-04 21:25 35.08007 -119.85580 25007 ft 288 kts 145°
2026-05-04 21:25 35.06620 -119.83821 25006 ft 287 kts 145°
2026-05-04 21:26 35.05232 -119.82062 24995 ft 287 kts 146°
2026-05-04 21:26 35.03844 -119.80305 24995 ft 287 kts 146°
2026-05-04 21:26 35.02457 -119.78550 25001 ft 287 kts 146°
2026-05-04 21:26 35.01067 -119.76792 25001 ft 288 kts 146°
2026-05-04 21:27 34.99697 -119.75059 25003 ft 287 kts 147°
2026-05-04 21:27 34.98309 -119.73304 25003 ft 287 kts 147°
2026-05-04 21:27 34.96920 -119.71552 25004 ft 287 kts 147°
2026-05-04 21:27 34.95535 -119.69803 24996 ft 287 kts 147°
2026-05-04 21:28 34.94144 -119.68047 24999 ft 287 kts 147°
2026-05-04 21:28 34.92758 -119.66301 24999 ft 287 kts 147°
2026-05-04 21:28 34.91374 -119.64557 24996 ft 286 kts 147°
2026-05-04 21:28 34.89986 -119.62808 25004 ft 286 kts 147°
2026-05-04 21:29 34.88600 -119.61062 25006 ft 286 kts 147°
2026-05-04 21:29 34.87214 -119.59319 24998 ft 286 kts 147°
2026-05-04 21:29 34.85828 -119.57576 25001 ft 286 kts 147°
2026-05-04 21:29 34.84443 -119.55833 25000 ft 286 kts 147°
2026-05-04 21:30 34.83077 -119.54118 24987 ft 286 kts 147°
2026-05-04 21:30 34.81694 -119.52381 25001 ft 287 kts 149°
2026-05-04 21:30 34.80298 -119.50633 25000 ft 288 kts 148°
2026-05-04 21:30 34.78903 -119.48883 25003 ft 289 kts 148°
2026-05-04 21:31 34.76088 -119.45355 25008 ft 290 kts 148°
2026-05-04 21:31 34.74696 -119.43601 25006 ft 286 kts 149°
2026-05-04 21:31 34.73315 -119.41871 25001 ft 284 kts 149°
2026-05-04 21:32 34.71926 -119.40144 25003 ft 286 kts 149°
2026-05-04 21:32 34.70531 -119.38402 25002 ft 287 kts 149°
2026-05-04 21:32 34.69139 -119.36657 25006 ft 287 kts 149°
2026-05-04 21:32 34.67766 -119.34940 25001 ft 287 kts 149°
2026-05-04 21:33 34.66369 -119.33197 24999 ft 287 kts 149°
2026-05-04 21:33 34.64982 -119.31466 24994 ft 286 kts 149°
2026-05-04 21:33 34.63594 -119.29735 24992 ft 286 kts 149°
2026-05-04 21:33 34.62198 -119.27997 25009 ft 290 kts 149°
2026-05-04 21:34 34.60779 -119.26234 25013 ft 292 kts 148°
2026-05-04 21:34 34.59368 -119.24469 24991 ft 291 kts 149°
2026-05-04 21:34 34.57961 -119.22712 24986 ft 290 kts 149°
2026-05-04 21:34 34.56557 -119.20968 24987 ft 287 kts 149°
2026-05-04 21:35 34.55160 -119.19233 24997 ft 287 kts 149°
2026-05-04 21:35 34.53806 -119.17552 24999 ft 287 kts 149°
2026-05-04 21:35 34.52370 -119.15767 24998 ft 287 kts 149°
2026-05-04 21:35 34.50988 -119.14046 25008 ft 284 kts 149°
2026-05-04 21:36 34.49591 -119.12319 24993 ft 288 kts 149°
2026-05-04 21:36 34.48184 -119.10581 25011 ft 292 kts 150°
2026-05-04 21:36 34.46756 -119.08810 25012 ft 294 kts 149°
2026-05-04 21:36 34.45335 -119.07038 25016 ft 292 kts 149°
2026-05-04 21:37 34.43918 -119.05280 25002 ft 290 kts 150°
2026-05-04 21:37 34.42529 -119.03563 25021 ft 289 kts 150°
2026-05-04 21:37 34.41103 -119.01804 25016 ft 288 kts 150°
2026-05-04 21:37 34.39707 -119.00074 25007 ft 286 kts 150°
2026-05-04 21:38 34.38317 -118.98357 25010 ft 287 kts 150°
2026-05-04 21:38 34.36913 -118.96629 25013 ft 289 kts 150°
2026-05-04 21:38 34.35498 -118.94882 25026 ft 291 kts 150°
2026-05-04 21:38 34.34082 -118.93128 25033 ft 291 kts 150°
2026-05-04 21:39 34.32660 -118.91377 25036 ft 292 kts 150°
2026-05-04 21:39 34.31250 -118.89640 25015 ft 292 kts 150°
2026-05-04 21:39 34.29828 -118.87885 25016 ft 291 kts 150°
2026-05-04 21:39 34.28415 -118.86142 25026 ft 290 kts 151°
2026-05-04 21:40 34.27000 -118.84403 25028 ft 290 kts 151°
2026-05-04 21:40 34.25716 -118.82825 25028 ft 290 kts 151°
2026-05-04 21:40 34.24306 -118.81090 25027 ft 290 kts 151°
2026-05-04 21:40 34.22893 -118.79354 25027 ft 289 kts 151°
2026-05-04 21:41 34.21483 -118.77621 25025 ft 289 kts 151°
2026-05-04 21:41 34.20074 -118.75892 25022 ft 289 kts 151°
2026-05-04 21:41 34.18669 -118.74164 25032 ft 288 kts 151°
2026-05-04 21:41 34.17338 -118.72537 25036 ft 290 kts 151°
2026-05-04 21:42 34.15920 -118.70802 25040 ft 291 kts 151°
2026-05-04 21:42 34.14502 -118.69061 25030 ft 291 kts 150°
2026-05-04 21:42 34.13088 -118.67326 25030 ft 291 kts 151°
2026-05-04 21:42 34.11684 -118.65607 25030 ft 291 kts 150°
2026-05-04 21:43 34.10274 -118.63885 25028 ft 291 kts 150°
2026-05-04 21:43 34.08866 -118.62159 25052 ft 288 kts 150°
2026-05-04 21:43 34.07475 -118.60454 25059 ft 285 kts 151°
2026-05-04 21:43 34.06224 -118.58930 25061 ft 284 kts 151°
2026-05-04 21:44 34.04838 -118.57240 25068 ft 284 kts 151°
2026-05-04 21:44 34.03434 -118.55534 25066 ft 288 kts 151°
2026-05-04 21:44 34.02022 -118.53812 25070 ft 290 kts 150°
2026-05-04 21:44 34.00659 -118.52145 25073 ft 291 kts 150°
2026-05-04 21:45 33.99260 -118.50438 25075 ft 291 kts 150°
2026-05-04 21:45 33.97838 -118.48707 25076 ft 292 kts 150°
2026-05-04 21:45 33.96414 -118.46971 25064 ft 291 kts 151°
2026-05-04 21:45 33.94997 -118.45246 25068 ft 289 kts 151°
2026-05-04 21:46 33.93826 -118.43821 25057 ft 288 kts 151°
2026-05-04 21:46 33.92541 -118.42069 25067 ft 298 kts 144°
2026-05-04 21:46 33.91216 -118.40067 25067 ft 297 kts 145°
2026-05-04 21:46 33.89930 -118.38169 25067 ft 296 kts 145°
2026-05-04 21:47 33.88700 -118.36358 25062 ft 296 kts 145°
2026-05-04 21:47 33.87402 -118.34435 25067 ft 296 kts 145°
2026-05-04 21:47 33.86100 -118.32502 25067 ft 296 kts 145°
2026-05-04 21:47 33.84799 -118.30578 25069 ft 296 kts 145°
2026-05-04 21:48 33.83499 -118.28653 25071 ft 297 kts 145°
2026-05-04 21:48 33.82340 -118.26935 25071 ft 297 kts 145°
2026-05-04 21:48 33.81037 -118.25010 25072 ft 297 kts 145°
2026-05-04 21:48 33.79736 -118.23088 25051 ft 296 kts 146°
2026-05-04 21:49 33.78430 -118.21161 25050 ft 297 kts 146°
2026-05-04 21:49 33.77222 -118.19379 25051 ft 297 kts 146°
2026-05-04 21:49 33.75916 -118.17453 25051 ft 298 kts 146°
2026-05-04 21:49 33.74608 -118.15522 25031 ft 298 kts 146°
2026-05-04 21:50 33.73299 -118.13593 25036 ft 297 kts 146°
2026-05-04 21:50 33.72968 -118.13105 25036 ft 297 kts 146°
2026-05-04 21:50 33.71663 -118.11184 25056 ft 297 kts 146°
2026-05-04 21:50 33.70357 -118.09262 25058 ft 297 kts 146°
2026-05-04 21:51 33.69049 -118.07338 25017 ft 298 kts 146°
2026-05-04 21:51 33.67730 -118.05411 24701 ft 305 kts 145°
2026-05-04 21:51 33.66515 -118.03621 24361 ft 304 kts 144°
2026-05-04 21:51 33.65573 -118.02226 24083 ft 301 kts 144°
2026-05-04 21:52 33.64321 -118.00384 23710 ft 300 kts 144°
2026-05-04 21:52 33.63002 -117.98454 23267 ft 299 kts 144°
2026-05-04 21:52 33.61686 -117.96525 22873 ft 298 kts 144°
2026-05-04 21:52 33.60364 -117.94592 22481 ft 301 kts 143°
2026-05-04 21:53 33.59038 -117.92648 22085 ft 302 kts 142°
2026-05-04 21:53 33.57704 -117.90691 21685 ft 302 kts 142°
2026-05-04 21:53 33.56826 -117.89405 21420 ft 302 kts 142°
2026-05-04 21:53 33.55369 -117.87275 20983 ft 302 kts 141°
2026-05-04 21:54 33.54030 -117.85319 20582 ft 302 kts 141°
2026-05-04 21:54 33.52695 -117.83367 20181 ft 303 kts 140°
2026-05-04 21:54 33.51377 -117.81441 19785 ft 303 kts 140°
2026-05-04 21:54 33.50071 -117.79536 19391 ft 303 kts 139°
2026-05-04 21:55 33.48867 -117.77778 19031 ft 303 kts 139°
2026-05-04 21:55 33.47507 -117.75796 18625 ft 304 kts 139°
2026-05-04 21:55 33.46167 -117.73842 18204 ft 304 kts 138°
2026-05-04 21:55 33.44827 -117.71889 17778 ft 303 kts 138°
2026-05-04 21:56 33.43468 -117.69912 17371 ft 305 kts 138°
2026-05-04 21:56 33.42120 -117.67951 16960 ft 305 kts 137°
2026-05-04 21:56 33.40790 -117.66015 16532 ft 305 kts 137°
2026-05-04 21:56 33.39463 -117.64085 16121 ft 305 kts 137°
2026-05-04 21:57 33.38118 -117.62129 15725 ft 303 kts 136°
2026-05-04 21:57 33.36776 -117.60181 15318 ft 302 kts 136°
2026-05-04 21:57 33.35444 -117.58248 14918 ft 300 kts 136°
2026-05-04 21:57 33.34119 -117.56325 14523 ft 298 kts 135°
2026-05-04 21:58 33.32802 -117.54416 14132 ft 297 kts 135°
2026-05-04 21:58 33.31496 -117.52525 13730 ft 296 kts 135°
2026-05-04 21:58 33.30195 -117.50639 13323 ft 292 kts 135°
2026-05-04 21:58 33.28904 -117.48771 12938 ft 290 kts 135°
2026-05-04 21:59 33.27622 -117.46918 12543 ft 290 kts 135°
2026-05-04 21:59 33.26337 -117.45057 12169 ft 289 kts 135°
2026-05-04 21:59 33.25058 -117.43209 11808 ft 288 kts 135°
2026-05-04 21:59 33.23833 -117.41365 11432 ft 288 kts 129°
2026-05-04 22:00 33.22749 -117.39347 11056 ft 288 kts 127°
2026-05-04 22:00 33.21675 -117.37341 10666 ft 286 kts 127°
2026-05-04 22:00 33.20599 -117.35358 10280 ft 284 kts 127°
2026-05-04 22:00 33.19530 -117.33388 9907 ft 281 kts 127°
2026-05-04 22:01 33.18473 -117.31435 9516 ft 278 kts 127°
2026-05-04 22:01 33.17432 -117.29510 9163 ft 275 kts 126°
2026-05-04 22:01 33.16394 -117.27596 8782 ft 275 kts 126°
2026-05-04 22:01 33.15360 -117.25690 8422 ft 271 kts 126°
2026-05-04 22:02 33.14341 -117.23810 8065 ft 268 kts 125°
2026-05-04 22:02 33.13332 -117.21951 7715 ft 266 kts 125°
2026-05-04 22:02 33.12328 -117.20102 7368 ft 265 kts 125°
2026-05-04 22:02 33.11330 -117.18265 6998 ft 263 kts 124°
2026-05-04 22:03 33.10338 -117.16442 6646 ft 261 kts 124°
2026-05-04 22:03 33.09356 -117.14639 6290 ft 257 kts 123°
2026-05-04 22:03 33.08387 -117.12851 5951 ft 255 kts 123°
2026-05-04 22:03 33.07416 -117.11084 5595 ft 253 kts 126°
2026-05-04 22:04 33.06156 -117.09686 5255 ft 251 kts 149°
2026-05-04 22:04 33.04631 -117.08700 4953 ft 248 kts 155°
2026-05-04 22:04 33.03170 -117.07785 4628 ft 228 kts 155°
2026-05-04 22:04 33.01822 -117.06926 4343 ft 209 kts 156°
2026-05-04 22:05 33.00612 -117.06154 4079 ft 184 kts 156°
2026-05-04 22:05 32.99511 -117.05457 3843 ft 174 kts 156°
2026-05-04 22:05 32.98461 -117.04795 3617 ft 168 kts 156°
2026-05-04 22:05 32.97432 -117.04144 3408 ft 165 kts 155°
2026-05-04 22:06 32.96436 -117.03508 3200 ft 161 kts 156°
2026-05-04 22:06 32.95442 -117.02879 2980 ft 162 kts 156°
2026-05-04 22:06 32.94447 -117.02248 2790 ft 163 kts 157°
2026-05-04 22:06 32.93452 -117.01619 2569 ft 163 kts 159°
2026-05-04 22:07 32.92431 -117.01116 2361 ft 158 kts 166°
2026-05-04 22:07 32.91400 -117.00674 2157 ft 158 kts 167°
2026-05-04 22:07 32.90361 -117.00214 1945 ft 157 kts 166°
2026-05-04 22:07 32.89356 -116.99763 1747 ft 153 kts 166°
2026-05-04 22:08 32.88706 -116.99470 1619 ft 143 kts 165°
2026-05-04 22:08 32.87838 -116.99091 1417 ft 124 kts 166°
2026-05-04 22:08 32.87048 -116.98745 1257 ft 116 kts 169°
2026-05-04 22:08 32.86302 -116.98424 1075 ft 110 kts 171°
2026-05-04 22:09 32.85598 -116.98104 963 ft 112 kts 165°
2026-05-04 22:09 32.84844 -116.97772 923 ft 116 kts 165°
2026-05-04 22:09 32.84090 -116.97485 827 ft 111 kts 169°
2026-05-04 22:09 32.83352 -116.97328 846 ft 109 kts 179°
2026-05-04 22:10 32.82567 -116.97326 960 ft 116 kts 188°
2026-05-04 22:10 32.81773 -116.97380 1205 ft 114 kts 192°
2026-05-04 22:10 32.81005 -116.97445 1314 ft 106 kts 183°
2026-05-04 22:10 32.80361 -116.97047 1492 ft 117 kts 130°
2026-05-04 22:11 32.80177 -116.96065 1442 ft 131 kts 80°
2026-05-04 22:11 32.80597 -116.95173 1411 ft 118 kts 34°
2026-05-04 22:11 32.81348 -116.94833 1118 ft 113 kts
2026-05-04 22:11 32.82074 -116.94884 965 ft 98 kts 333°
2026-05-04 22:12 32.82471 -116.95468 699 ft 97 kts 282°
2026-05-04 22:12 32.82600 -116.96205 489 ft 84 kts 287°
2026-05-04 22:12 32.82712 -116.96818 385 ft 67 kts 283°
2026-05-04 22:12 32.82792 -116.97267 369 ft 37 kts 281°
2026-05-04 22:13 32.82819 -116.97415 371 ft 19 kts 282°
2026-05-04 22:13 32.82830 -116.97504 371 ft 0 kts 261°
2026-05-04 22:13 32.82802 -116.97572 371 ft 14 kts 233°
2026-05-04 22:13 32.82737 -116.97618 371 ft 12 kts 192°
2026-05-04 22:14 32.82689 -116.97620 372 ft 0 kts 150°
2026-05-04 22:14 32.82678 -116.97605 372 ft 8 kts 115°
2026-05-04 22:14 32.82656 -116.97489 373 ft 17 kts 103°
2026-05-04 22:15 32.82635 -116.97372 373 ft 11 kts 103°
2026-05-04 22:15 32.82614 -116.97301 373 ft 6 kts 153°
2026-05-04 22:15 32.82586 -116.97295 374 ft 2 kts 177°
2026-05-04 22:15 32.82551 -116.97295 375 ft 8 kts 180°
2026-05-04 22:16 32.82531 -116.97322 374 ft 5 kts 261°
2026-05-04 22:16 32.82522 -116.97333 375 ft 0 kts 186°